Location: Newark
(37.9800°N, 91.3000°W)
Time: 21:28:51
(UTC+00:00)

Envisat - Pass Details

Date: 21 October 2019
Orbit: 764 x 766 km, 98.1° (Epoch: 14 November)

Event Time Altitude Azimuth Distance (km) Brightness Sun altitude
Rises 00:07:40 0° 164° (SSE) 3,217 6.1 -9.9°
Reaches altitude 10° 00:09:57 10° 164° (SSE) 2,295 5.4 -10.4°
Maximum altitude 00:15:01 85° 77° (ENE) 773 3.0 -11.4°
Drops below altitude 10° 00:20:07 10° 349° (NNW) 2,310 5.6 -12.4°
Sets 00:22:26 0° 349° (NNW) 3,240 6.4 -12.8°
